Погода в Никольском

Россия / Новгородская область     57°43′47″N   33°00′05″E
темп.,
°C
ветер,
м/с
пор.,
м/с
влажн.,
%
обл.,
%
осадки,
мм/ч
давл.,
гПа
погр.,
м
16 мая, пн
пн1600:00+3з29915 0.1 1008215
03:00+2з310955 0.1 1008261
06:00+3з3109314 0.0 1008418
09:00+8зсз597098 0.0 10081172
12:00+5зсз4895100 0.3 1009797
15:00+6зсз4892100 0.4 1009689
18:00+8зсз4880100 0.1 1008863
21:00+6сз4994100 0.3 1008618
17 мая, вт
вт1700:00+6сз41095100 0.0 1009607
03:00+5зсз3996100 0.0 1009514
06:00+5сз3894100 0.0 1009570
09:00+7ссз4779100 0.0 1009764
12:00+7ссз4780100 0.1 1010906
15:00+5ссз4896100 2.1 1011769
18:00+4сз4997100 0.1 1012605
21:00+4сз4998100 0.1 1013488
18 мая, ср
ср1800:00+4ссз4109896 0.0 1014508
03:00+3ссз389886 0.0 1015336
06:00+4сз3997100 0.0 1016413
09:00+5ссз4888100 0.0 1017747
12:00+7сз4871100 0.1 10171243
15:00+9сз4857100 0.1 10171706
18:00+9зсз4862100 0.1 10171352
21:00+6зюз2282100 0.1 101644
19 мая, чт
чт1900:00+6юз31281100 0.0 1013414
03:00+5сз41095100 0.8 1013734
06:00+4сз4109676 0.0 1015449
09:00+6ссз368473 0.0 1016687
12:00+11с354654 0.1 10161882
15:00+12ссз4541100 0.1 10172038
18:00+11ссз365196 0.0 10171654
21:00+6ссз127034 0.0 101813
20 мая, пт
пт2000:00+3с127184 0.0 102012
03:00+1ссв11785 0.0 102010
06:00+3св127581 0.0 102069
09:00+9ссв23525 0.0 10191059
12:00+12ссв234166 0.0 10171864
15:00+13св323793 0.0 10152265
18:00+12св434064 0.0 10141752
21:00+6всв35645 0.0 101578